map of NAS home
Great Circle Mapper logo
NAS - Airport
Location
City:  Nassau, New Providence Island, Bahamas
Name:Lynden Pindling International Airport
ICAO / IATA:MYNN / NAS

Details
Type:Airport (Aerodrome, Airfield)
Use:Public/Civil, International (customs port of entry)
Latitude:2502'20"N (25.038958)
Longitude:7727'58"W (-77.466230)
Datum:WGS 1984
Elevation:16 ft (5 m)
Runways:2
Longest:11353 × 150 ft (3460 × 45.5 m), paved

Time
Time Zone:UTC-5 (DST-4)
Local Time:

Weather
METAR:MYNN 250600Z 05012KT 9999 SCT015 BKN040 BKN080 25/24 A2978
TAF:MYNN 242200Z 2500/2600 24015KT 9999 FEW018CB SCT020 BKN040 OVC080
TEMPO 2500/2512 6000 SHRA BKN015 PROB40 2504/2508 4800 TSRA BKN012CB
BECMG 2513/2515 04015KT PROB30 2515/2518 5000 SHRA BKN015

Related Locations
Nearby:
Farthest:USL: 11765 mi / 18933 km
Useless Loop, WA, AU

Find:

   beyond  
but within

Other Information
Maps:
NOTAMs:
Links:
Sources:

  
flag of Bahamas   

Airport Diagram

Airport diagram for NAS

Airport diagram (OBSOLETE) from NGA

Sectional Chart

Flight Planning
at skyvector.com

Satellite Image

Google Maps Satellite View

 

Copyright © 2004-2014 Karl L. Swartz. All rights reserved.
The Great Circle Mapper name and logo are trademarks of the Great Circle Mapper.
All other trademarks mentioned herein belong to their respective owners.
Please see credits for attibutions and further copyright information.

  Follow gcmap on Facebook Follow gcmap on Twitter

hCard Microformat

Geo Microformat